EW2672 Weather Reports


Display with metric or nautical units.
time (UTC)temp
F
wind
direction
speed
MPH
gust
MPH
rain 1hr
in
rain 24hr
in
rain mn
in
humidity
%
barometer
mb
20260904173616 91 150 3.0 11.0 0.00 0.03 0.03 60 1015.3
20260904173114 90 180 1.0 8.0 0.00 0.03 0.03 61 1015.4
20260904172612 90 179 3.0 8.0 0.00 0.03 0.03 61 1015.5
20260904172108 90 174 1.0 6.0 0.00 0.03 0.03 61 1015.5
20260904171606 90 177 1.0 5.0 0.00 0.03 0.03 60 1015.5
20260904171102 90 177 1.0 5.0 0.00 0.03 0.03 60 1015.5
20260904170600 90 177 1.0 6.0 0.00 0.03 0.03 62 1015.6
20260904170058 90 177 1.0 6.0 0.00 0.03 0.03 61 1015.6
20260904165556 90 177 1.0 6.0 0.00 0.03 0.03 61 1015.7
20260904165052 89 198 1.0 5.0 0.00 0.03 0.03 62 1015.6
20260904164550 88 205 1.0 5.0 0.00 0.03 0.03 66 1015.5
20260904164048 88 205 1.0 6.0 0.00 0.03 0.03 65 1015.6
20260904163546 88 205 1.0 4.0 0.00 0.03 0.03 65 1015.6
20260904163042 88 205 1.0 5.0 0.00 0.03 0.03 64 1015.6
20260904162540 88 0.0 5.0 0.00 0.03 0.03 67 1015.6
20260904162038 88 205 1.0 4.0 0.00 0.03 0.03 68 1015.5
20260904161536 87 0.0 5.0 0.00 0.03 0.03 70 1015.5
20260904161032 87 206 1.0 7.0 0.00 0.03 0.03 70 1015.5
20260904160530 86 207 1.0 7.0 0.00 0.03 0.03 70 1015.5
20260904160028 86 209 1.0 6.0 0.00 0.03 0.03 72 1015.5
20260904155526 85 216 2.0 6.0 0.00 0.03 0.03 71 1015.5
20260904155022 85 0.0 7.0 0.00 0.03 0.03 72 1015.5
20260904154520 85 223 1.0 7.0 0.00 0.03 0.03 73 1015.6
20260904154018 85 209 1.0 5.0 0.00 0.03 0.03 72 1015.6
20260904153516 85 209 1.0 5.0 0.00 0.03 0.03 75 1015.5
20260904153012 84 0.0 4.0 0.00 0.03 0.03 77 1015.5
20260904152510 84 210 1.0 4.0 0.00 0.03 0.03 77 1015.5
20260904152008 83 210 1.0 4.0 0.00 0.03 0.03 80 1015.4
20260904151506 82 0.0 3.0 0.00 0.03 0.03 82 1015.4
20260904151002 82 0.0 5.0 0.00 0.03 0.03 82 1015.4
20260904150500 81 0.0 5.0 0.00 0.03 0.03 83 1015.3
20260904145958 81 0.0 4.0 0.00 0.03 0.03 84 1015.3
20260904145456 81 216 1.0 7.0 0.00 0.03 0.03 86 1015.2
20260904144952 80 0.0 5.0 0.00 0.03 0.03 86 1015.2
20260904144450 80 188 1.0 5.0 0.00 0.03 0.03 87 1015.2
20260904143946 80 0.0 5.0 0.00 0.03 0.03 88 1015.2
20260904143444 79 188 1.0 4.0 0.00 0.03 0.03 89 1015.2
20260904142942 79 188 1.0 4.0 0.00 0.03 0.03 90 1015.2
20260904142440 79 0.0 2.0 0.00 0.03 0.03 90 1015.2
20260904141936 79 0.0 2.0 0.00 0.03 0.03 90 1015.1
20260904141434 79 0.0 3.0 0.01 0.03 0.03 91 1015.2
20260904140932 79 0.0 4.0 0.01 0.03 0.03 91 1015.1
20260904140430 78 0.0 5.0 0.01 0.03 0.03 91 1015.0
20260904135926 78 0.0 5.0 0.01 0.03 0.03 91 1015.0
20260904135424 78 0.0 4.0 0.02 0.03 0.03 91 1015.0
20260904134922 78 0.0 4.0 0.02 0.03 0.03 92 1015.0
20260904134420 78 0.0 2.0 0.02 0.03 0.03 92 1014.9
20260904133916 78 0.0 4.0 0.03 0.03 0.03 92 1014.9
20260904133414 78 0.0 4.0 0.03 0.03 0.03 92 1014.9
20260904132913 78 0.0 3.0 0.03 0.03 0.03 91 1015.0
20260904132409 78 0.0 2.0 0.03 0.03 0.03 91 1015.0
20260904131905 78 0.0 4.0 0.03 0.03 0.03 91 1015.0
20260904131403 78 0.0 4.0 0.02 0.02 0.02 91 1015.0
20260904130901 78 0.0 2.0 0.02 0.02 0.02 91 1015.1
20260904130359 78 0.0 2.0 0.02 0.02 0.02 90 1015.2
20260904125855 78 0.0 0.0 0.02 0.02 0.02 90 1015.2
20260904125353 78 0.0 0.0 0.01 0.01 0.01 90 1015.2
20260904124851 78 0.0 0.0 0.01 0.01 0.01 90 1015.2
20260904124349 78 0.0 0.0 0.00 0.00 0.00 89 1015.2
20260904123845 79 0.0 0.0 0.00 0.00 0.00 89 1015.2
20260904123343 79 0.0 0.0 0.00 0.00 0.00 88 1015.2
20260904122841 79 0.0 0.0 0.00 0.00 0.00 87 1015.1
20260904122339 79 0.0 0.0 0.00 0.00 0.00 87 1015.2
20260904121835 79 0.0 0.0 0.00 0.00 0.00 87 1015.1
20260904121333 79 0.0 0.0 0.00 0.00 0.00 87 1015.0
20260904120831 79 0.0 5.0 0.00 0.00 0.00 87 1014.9
20260904120327 79 0.0 5.0 0.00 0.00 0.00 87 1014.8
20260904115825 79 0.0 5.0 0.00 0.00 0.00 86 1014.7
20260904115323 79 1.0 3.0 0.00 0.00 0.00 86 1014.6
20260904114819 79 0.0 3.0 0.00 0.00 0.00 86 1014.5
20260904114317 79 0.0 3.0 0.00 0.00 0.00 86 1014.4
20260904113815 79 188 1.0 3.0 0.00 0.00 0.00 85 1014.3
20260904113313 79 0.0 3.0 0.00 0.00 0.00 85 1014.1
20260904112809 79 0.0 0.0 0.00 0.00 0.00 85 1014.1
20260904112307 79 0.0 0.0 0.00 0.00 0.00 85 1014.0
20260904111805 79 0.0 0.0 0.00 0.00 0.00 85 1013.9
20260904111303 79 0.0 4.0 0.00 0.00 0.00 85 1013.9
20260904110759 79 188 1.0 4.0 0.00 0.00 0.00 85 1013.9
20260904110257 79 1.0 7.0 0.00 0.00 0.00 85 1013.8
20260904105755 79 188 2.0 7.0 0.00 0.00 0.00 85 1013.8
20260904105253 79 189 1.0 4.0 0.00 0.00 0.00 85 1013.8
20260904104749 79 189 1.0 4.0 0.00 0.00 0.00 85 1013.8
20260904104247 79 0.0 3.0 0.00 0.00 0.00 85 1013.7
20260904103745 79 0.0 3.0 0.00 0.00 0.00 85 1013.7
20260904103243 79 0.0 5.0 0.00 0.00 0.00 85 1013.7
20260904102739 79 0.0 5.0 0.00 0.00 0.00 85 1013.7
20260904102237 79 0.0 3.0 0.00 0.00 0.00 84 1013.7
20260904101735 79 0.0 3.0 0.00 0.00 0.00 84 1013.7
20260904101233 79 0.0 2.0 0.00 0.00 0.00 84 1013.7
20260904100729 79 0.0 5.0 0.00 0.00 0.00 84 1013.6
20260904100227 79 1.0 5.0 0.00 0.00 0.00 84 1013.4
20260904095725 79 0.0 3.0 0.00 0.00 0.00 84 1013.4
20260904095223 79 0.0 4.0 0.00 0.00 0.00 83 1013.4
20260904094719 80 189 1.0 4.0 0.00 0.00 0.00 83 1013.4
20260904094217 80 1.0 3.0 0.00 0.00 0.00 83 1013.4
20260904093715 80 0.0 3.0 0.00 0.00 0.00 83 1013.4
20260904093213 80 189 1.0 6.0 0.00 0.00 0.00 83 1013.3
20260904092709 80 0.0 4.0 0.00 0.00 0.00 83 1013.3
20260904092207 80 0.0 5.0 0.00 0.00 0.00 83 1013.3
20260904091703 80 189 1.0 3.0 0.00 0.00 0.00 83 1013.3
20260904091201 80 0.0 4.0 0.00 0.00 0.00 83 1013.4
20260904090659 80 189 1.0 4.0 0.00 0.00 0.00 83 1013.4
20260904090157 80 1.0 4.0 0.00 0.00 0.00 83 1013.5
20260904085653 80 189 1.0 4.0 0.00 0.00 0.00 83 1013.5
20260904085151 80 189 1.0 4.0 0.00 0.00 0.00 83 1013.5
20260904084649 80 0.0 3.0 0.00 0.00 0.00 83 1013.5
20260904084147 80 0.0 4.0 0.00 0.00 0.00 83 1013.4
20260904083643 80 0.0 7.0 0.00 0.00 0.00 82 1013.4
20260904083141 80 0.0 7.0 0.00 0.00 0.00 82 1013.4
20260904082639 80 189 1.0 8.0 0.00 0.00 0.00 82 1013.5
20260904082137 80 191 2.0 8.0 0.00 0.00 0.00 82 1013.6
20260904081633 80 0.0 3.0 0.00 0.00 0.00 82 1013.6
20260904081131 80 178 1.0 6.0 0.00 0.00 0.00 82 1013.5
20260904080629 80 178 2.0 6.0 0.00 0.00 0.00 82 1013.6
20260904080127 80 178 1.0 6.0 0.00 0.00 0.00 82 1013.6
20260904075623 80 0.0 8.0 0.00 0.00 0.00 82 1013.5
20260904075121 80 144 1.0 8.0 0.00 0.00 0.00 82 1013.5
20260904074619 80 138 2.0 7.0 0.00 0.00 0.00 82 1013.5
20260904074117 80 167 2.0 8.0 0.00 0.00 0.00 81 1013.4
20260904073613 80 165 1.0 8.0 0.00 0.00 0.00 81 1013.4
20260904073111 80 144 1.0 10.0 0.00 0.00 0.00 81 1013.5
20260904072609 80 143 2.0 10.0 0.00 0.00 0.00 81 1013.6
20260904072107 80 159 2.0 8.0 0.00 0.00 0.00 81 1013.6
20260904071603 80 159 1.0 8.0 0.00 0.00 0.00 81 1013.6
20260904071101 80 155 2.0 7.0 0.00 0.00 0.00 81 1013.7
20260904070559 80 155 1.0 7.0 0.00 0.00 0.00 81 1013.8
20260904070057 80 155 1.0 7.0 0.00 0.00 0.00 81 1013.8
20260904065553 80 154 1.0 5.0 0.00 0.00 0.00 81 1013.8
20260904065051 80 1.0 6.0 0.00 0.00 0.00 81 1013.8
20260904064547 80 0.0 5.0 0.00 0.00 0.00 81 1013.9
20260904064045 80 0.0 5.0 0.00 0.00 0.00 81 1013.9
20260904063543 80 154 1.0 7.0 0.00 0.00 0.00 81 1013.9
20260904063041 80 154 1.0 7.0 0.00 0.00 0.00 81 1013.8
20260904062537 80 153 1.0 6.0 0.00 0.00 0.00 81 1013.8
20260904062035 80 157 1.0 8.0 0.00 0.00 0.00 81 1013.7
20260904061533 80 155 2.0 8.0 0.00 0.00 0.00 81 1013.7
20260904061031 80 163 3.0 7.0 0.00 0.00 0.00 81 1013.8
20260904060527 80 163 2.0 7.0 0.00 0.00 0.00 80 1013.8
20260904060025 80 163 1.0 9.0 0.00 0.00 0.00 80 1013.8
20260904055523 80 152 3.0 9.0 0.00 0.00 0.00 80 1013.8
20260904055021 80 162 2.0 7.0 0.00 0.00 0.00 81 1013.8
20260904054517 80 161 2.0 6.0 0.00 0.00 0.00 80 1013.7
20260904054015 80 162 1.0 7.0 0.00 0.00 0.00 80 1013.7
20260904053513 80 164 2.0 7.0 0.00 0.00 0.00 80 1013.7
20260904053011 80 164 1.0 6.0 0.00 0.00 0.00 80 1013.7
20260904052507 80 172 1.0 8.0 0.00 0.00 0.00 80 1013.7
20260904052005 80 0.0 8.0 0.00 0.00 0.00 80 1013.6
20260904051503 80 0.0 5.0 0.00 0.00 0.00 80 1013.6
20260904051001 80 145 1.0 4.0 0.00 0.00 0.00 80 1013.7
20260904050457 80 0.0 4.0 0.00 0.00 0.00 80 1013.6
20260904045954 80 0.0 3.0 0.00 0.00 0.00 80 1013.5
20260904045452 80 0.0 4.0 0.00 0.00 0.00 80 1013.5
20260904044950 80 0.0 5.0 0.00 0.00 0.00 79 1013.5
20260904044446 80 144 1.0 7.0 0.00 0.00 0.00 79 1013.6
20260904043944 80 147 1.0 8.0 0.00 0.00 0.00 79 1013.4
20260904043442 80 138 1.0 8.0 0.00 0.00 0.00 79 1013.4
20260904042940 80 159 1.0 7.0 0.00 0.00 0.00 78 1013.5
20260904042436 80 150 1.0 6.0 0.00 0.00 0.00 78 1013.6
20260904041934 81 149 1.0 3.0 0.00 0.00 0.00 78 1013.5
20260904041432 81 149 1.0 3.0 0.00 0.00 0.00 77 1013.6
20260904040930 81 149 1.0 6.0 0.00 0.00 0.00 77 1013.5
20260904040426 81 0.0 6.0 0.00 0.00 0.00 77 1013.6
20260904035924 81 0.0 2.0 0.00 0.00 0.00 76 1013.6
20260904035422 81 0.0 2.0 0.00 0.00 0.00 76 1013.5
20260904034920 81 0.0 1.0 0.00 0.00 0.00 75 1013.4
20260904034416 81 0.0 6.0 0.00 0.00 0.00 75 1013.4
20260904033914 81 148 1.0 6.0 0.00 0.00 0.00 75 1013.4
20260904033412 81 0.0 5.0 0.00 0.00 0.00 75 1013.4
20260904032908 81 147 1.0 5.0 0.00 0.00 0.00 74 1013.5
20260904032406 81 146 1.0 5.0 0.00 0.00 0.00 74 1013.3
20260904031904 81 0.0 4.0 0.00 0.00 0.00 74 1013.3
20260904031400 82 147 1.0 4.0 0.00 0.00 0.00 74 1013.3
20260904030858 82 0.0 6.0 0.00 0.00 0.00 74 1013.2
20260904030356 82 0.0 7.0 0.00 0.00 0.00 73 1013.2
20260904025854 82 162 1.0 7.0 0.00 0.00 0.00 73 1013.2
20260904025350 82 0.0 5.0 0.00 0.00 0.00 72 1013.1
20260904024848 82 150 1.0 7.0 0.00 0.00 0.00 72 1013.1
20260904024346 82 149 1.0 7.0 0.00 0.00 0.00 72 1013.1
20260904023844 82 153 1.0 7.0 0.00 0.00 0.00 71 1012.9
20260904023340 82 161 1.0 6.0 0.00 0.00 0.00 71 1013.0
20260904022838 82 1.0 5.0 0.00 0.00 0.00 71 1012.9
20260904022336 82 160 1.0 5.0 0.00 0.00 0.00 70 1012.9
20260904021834 83 157 1.0 3.0 0.00 0.00 0.00 70 1012.9
20260904021330 83 0.0 5.0 0.00 0.00 0.00 69 1012.8
20260904020828 83 0.0 5.0 0.00 0.00 0.00 69 1012.8
20260904020326 83 0.0 2.0 0.00 0.00 0.00 69 1012.6
20260904015824 83 0.0 2.0 0.00 0.00 0.00 69 1012.6
20260904015320 83 0.0 2.0 0.00 0.00 0.00 68 1012.4
20260904014818 83 0.0 3.0 0.00 0.00 0.00 68 1012.4
20260904014316 83 0.0 3.0 0.00 0.00 0.00 68 1012.4
20260904013813 83 1.0 7.0 0.00 0.00 0.00 68 1012.4
20260904013247 83 158 1.0 7.0 0.00 0.00 0.00 68 1012.4
20260904012745 84 164 1.0 7.0 0.00 0.00 0.00 68 1012.4
20260904012243 84 162 1.0 7.0 0.00 0.00 0.00 68 1012.5
20260904011741 84 164 1.0 9.0 0.00 0.00 0.00 67 1012.3
20260904011237 84 179 2.0 9.0 0.00 0.00 0.00 67 1012.2
20260904010735 84 0.0 8.0 0.00 0.00 0.00 67 1012.2
20260904010233 84 164 1.0 7.0 0.00 0.00 0.00 67 1012.2
20260904005731 84 166 1.0 8.0 0.00 0.00 0.00 67 1012.1
20260904005227 85 140 2.0 8.0 0.00 0.00 0.00 67 1012.0
20260904004725 85 155 1.0 8.0 0.00 0.00 0.00 67 1012.0
20260904004223 85 0.0 7.0 0.00 0.00 0.00 66 1012.0
20260904003721 86 1.0 7.0 0.00 0.00 0.00 66 1011.9
20260904003217 86 0.0 7.0 0.00 0.00 0.00 65 1012.0
20260904002715 86 0.0 7.0 0.00 0.00 0.00 65 1012.0
20260904002213 87 0.0 2.0 0.00 0.00 0.00 65 1012.0
20260904001711 87 0.0 11.0 0.00 0.00 0.00 64 1011.9
20260904001207 87 144 1.0 11.0 0.00 0.00 0.00 64 1011.9
20260904000705 87 156 1.0 9.0 0.00 0.00 0.00 63 1011.9
20260904000204 88 142 1.0 10.0 0.00 0.00 0.00 63 1011.9
20260903235659 88 162 1.0 11.0 0.00 0.00 0.00 63 1011.9
20260903235157 88 171 1.0 9.0 0.00 0.00 0.00 63 1011.9
20260903234655 88 154 1.0 9.0 0.00 0.00 0.00 63 1011.8
20260903234151 89 190 2.0 8.0 0.00 0.00 0.00 63 1011.8
20260903233649 89 145 1.0 8.0 0.00 0.00 0.00 62 1011.7
20260903233147 90 164 1.0 8.0 0.00 0.00 0.00 62 1011.7
20260903232645 90 175 2.0 10.0 0.00 0.00 0.00 61 1011.6
20260903232141 90 168 1.0 10.0 0.00 0.00 0.00 61 1011.5
20260903231639 91 139 1.0 12.0 0.00 0.00 0.00 62 1011.5
20260903231137 91 182 2.0 12.0 0.00 0.00 0.00 62 1011.5
20260903230635 93 135 1.0 8.0 0.00 0.00 0.00 61 1011.4
20260903230131 93 148 2.0 10.0 0.00 0.00 0.00 61 1011.4
20260903225629 93 136 2.0 10.0 0.00 0.00 0.00 60 1011.2
20260903225127 93 147 1.0 8.0 0.00 0.00 0.00 60 1011.3
20260903224625 93 150 2.0 8.0 0.00 0.00 0.00 59 1011.1
20260903224121 94 161 2.0 12.0 0.00 0.00 0.00 57 1011.2
20260903223619 94 161 2.0 12.0 0.00 0.00 0.00 57 1011.1
20260903223117 94 123 1.0 10.0 0.00 0.00 0.00 56 1011.2
20260903222615 94 152 2.0 10.0 0.00 0.00 0.00 56 1011.1
20260903222111 94 130 2.0 9.0 0.00 0.00 0.00 56 1011.2
20260903221609 95 158 2.0 11.0 0.00 0.00 0.00 55 1011.1
20260903221107 96 152 2.0 11.0 0.00 0.00 0.00 53 1011.1
20260903220605 96 145 2.0 10.0 0.00 0.00 0.00 52 1011.1
20260903220101 95 142 2.0 14.0 0.00 0.00 0.00 53 1011.1
20260903215559 95 157 2.0 14.0 0.00 0.00 0.00 53 1011.0
20260903215057 95 166 2.0 8.0 0.00 0.00 0.00 53 1011.1
20260903214555 95 154 3.0 11.0 0.00 0.00 0.00 53 1011.0
20260903214051 95 136 3.0 11.0 0.00 0.00 0.00 52 1011.0
20260903213549 95 160 1.0 9.0 0.00 0.00 0.00 53 1011.2
20260903213047 96 158 1.0 9.0 0.00 0.00 0.00 52 1011.2
20260903212545 96 158 2.0 8.0 0.00 0.00 0.00 51 1011.2
20260903212041 96 145 1.0 11.0 0.00 0.00 0.00 53 1011.3
20260903211539 96 147 2.0 11.0 0.00 0.00 0.00 52 1011.3
20260903211035 96 140 2.0 5.0 0.00 0.00 0.00 52 1011.3
20260903210533 96 140 2.0 8.0 0.00 0.00 0.00 52 1011.3
20260903210031 96 141 1.0 12.0 0.00 0.00 0.00 52 1011.4
20260903205529 96 143 3.0 12.0 0.00 0.00 0.00 51 1011.4
20260903205025 96 154 3.0 8.0 0.00 0.00 0.00 51 1011.4
20260903204523 97 168 2.0 7.0 0.00 0.00 0.00 50 1011.5
20260903204021 97 163 2.0 8.0 0.00 0.00 0.00 50 1011.6
20260903203519 97 162 1.0 7.0 0.00 0.00 0.00 50 1011.7
20260903203015 97 162 3.0 7.0 0.00 0.00 0.00 50 1011.9
20260903202513 98 164 1.0 3.0 0.00 0.00 0.00 48 1012.0
20260903202011 98 1.0 4.0 0.00 0.00 0.00 48 1012.1
20260903201509 98 171 1.0 5.0 0.00 0.00 0.00 48 1012.1
20260903201005 98 171 1.0 6.0 0.00 0.00 0.00 49 1012.2
20260903200503 98 171 1.0 4.0 0.00 0.00 0.00 48 1012.3
20260903200001 98 171 1.0 4.0 0.00 0.00 0.00 49 1012.3
20260903195459 96 0.0 5.0 0.00 0.00 0.00 51 1012.3
20260903194955 96 0.0 5.0 0.00 0.00 0.00 50 1012.3
20260903194453 95 171 1.0 3.0 0.00 0.00 0.00 51 1012.4
20260903193951 95 0.0 2.0 0.00 0.00 0.00 52 1012.4
20260903193449 94 0.0 4.0 0.00 0.00 0.00 51 1012.5
20260903192945 94 0.0 5.0 0.00 0.00 0.00 52 1012.7
20260903192443 94 171 1.0 5.0 0.00 0.00 0.00 52 1012.7
20260903191941 94 172 1.0 4.0 0.00 0.00 0.00 53 1012.8
20260903191438 93 172 1.0 4.0 0.00 0.00 0.00 54 1012.9
20260903190934 93 0.0 5.0 0.00 0.00 0.00 54 1012.9
20260903190432 93 0.0 3.0 0.00 0.00 0.00 55 1013.0
20260903185930 93 171 1.0 5.0 0.00 0.00 0.00 55 1013.2
20260903185428 93 0.0 6.0 0.00 0.00 0.00 56 1013.2
20260903184925 93 171 2.0 6.0 0.00 0.00 0.00 56 1013.3
20260903184422 93 0.0 4.0 0.00 0.00 0.00 56 1013.4
20260903183918 93 0.0 4.0 0.00 0.00 0.00 56 1013.5
20260903183416 92 0.0 4.0 0.00 0.00 0.00 56 1013.5
20260903182914 92 186 1.0 4.0 0.00 0.00 0.00 56 1013.6
20260903182412 92 186 2.0 4.0 0.00 0.00 0.00 57 1013.7
20260903181908 92 0.0 6.0 0.00 0.00 0.00 57 1013.7
20260903181406 92 0.0 6.0 0.00 0.00 0.00 57 1013.7
20260903180904 92 1.0 4.0 0.00 0.00 0.00 57 1013.8
20260903180402 92 1.0 5.0 0.00 0.00 0.00 57 1013.9
20260903175858 92 186 1.0 5.0 0.00 0.00 0.00 57 1014.0
20260903175356 92 186 1.0 4.0 0.00 0.00 0.00 58 1014.1
20260903174854 91 0.0 2.0 0.00 0.00 0.00 58 1014.1
20260903174352 91 0.0 4.0 0.00 0.00 0.00 58 1014.1
20260903173848 91 0.0 4.0 0.00 0.00 0.00 60 1014.2